TimeEST,TemperatureF,Dew PointF,Humidity,Sea Level PressureIn,VisibilityMPH,Wind Direction,Wind SpeedMPH,Gust SpeedMPH,PrecipitationIn,Events,Conditions,WindDirDegrees,DateUTC
12:15 AM,-9999,-9999,N/A,29.65,4.0,SE,9.2,-,0.05,,Overcast,130,2013-12-15 05:15:00
12:35 AM,-9999,-9999,N/A,29.61,4.0,SE,10.4,25.3,0.16,,Overcast,130,2013-12-15 05:35:00
12:55 AM,51.8,51.8,100,29.58,5.0,SSE,4.6,-,0.28,,Overcast,150,2013-12-15 05:55:00
1:15 AM,53.6,51.8,94,29.57,5.0,SSE,8.1,-,0.03,,Overcast,150,2013-12-15 06:15:00
1:35 AM,53.6,51.8,94,29.55,9.0,South,6.9,-,0.04,,Overcast,180,2013-12-15 06:35:00
1:55 AM,53.6,51.8,94,29.53,10.0,South,8.1,-,0.04,,Overcast,180,2013-12-15 06:55:00
2:15 AM,53.6,53.6,100,29.52,10.0,SSW,5.8,-,N/A,,Overcast,210,2013-12-15 07:15:00
2:35 AM,53.6,51.8,94,29.51,7.0,SW,8.1,-,N/A,,Overcast,230,2013-12-15 07:35:00
2:55 AM,51.8,51.8,100,29.53,7.0,WNW,17.3,20.7,N/A,,Overcast,290,2013-12-15 07:55:00
3:15 AM,39.2,37.4,93,29.53,10.0,WNW,10.4,-,N/A,,Overcast,290,2013-12-15 08:15:00
3:35 AM,37.4,35.6,93,29.52,8.0,WNW,8.1,-,N/A,,Overcast,300,2013-12-15 08:35:00
3:55 AM,35.6,33.8,93,29.52,7.0,WNW,6.9,-,N/A,,Overcast,290,2013-12-15 08:55:00
4:15 AM,35.6,33.8,93,29.54,5.0,WNW,9.2,-,N/A,,Overcast,300,2013-12-15 09:15:00
4:35 AM,35.6,33.8,93,29.54,5.0,WNW,6.9,-,N/A,,Overcast,300,2013-12-15 09:35:00
4:55 AM,35.6,33.8,93,29.57,6.0,WNW,5.8,-,N/A,,Overcast,300,2013-12-15 09:55:00
5:15 AM,35.6,33.8,93,29.56,5.0,NW,8.1,-,N/A,,Overcast,310,2013-12-15 10:15:00
5:35 AM,35.6,33.8,93,29.55,5.0,WNW,8.1,-,N/A,,Overcast,300,2013-12-15 10:35:00
5:55 AM,35.6,33.8,93,29.57,10.0,NW,5.8,-,N/A,,Overcast,310,2013-12-15 10:55:00
6:15 AM,35.6,33.8,93,29.57,10.0,WNW,3.5,-,N/A,,Overcast,290,2013-12-15 11:15:00
6:35 AM,35.6,33.8,93,29.59,10.0,West,4.6,-,N/A,,Overcast,280,2013-12-15 11:35:00
6:55 AM,35.6,33.8,93,29.59,5.0,West,4.6,-,N/A,,Overcast,280,2013-12-15 11:55:00
7:15 AM,33.8,32.0,93,29.60,5.0,WNW,5.8,-,N/A,,Overcast,290,2013-12-15 12:15:00
7:35 AM,33.8,32.0,93,29.59,7.0,WNW,6.9,-,N/A,,Overcast,290,2013-12-15 12:35:00
7:55 AM,33.8,30.2,87,29.58,3.0,WNW,8.1,-,N/A,,Overcast,300,2013-12-15 12:55:00
8:15 AM,33.8,32.0,93,29.61,4.0,West,4.6,-,N/A,,Overcast,280,2013-12-15 13:15:00
8:35 AM,33.8,32.0,93,29.61,10.0,WNW,6.9,-,N/A,,Overcast,290,2013-12-15 13:35:00
8:55 AM,32.0,30.2,93,29.61,10.0,West,8.1,-,N/A,,Overcast,280,2013-12-15 13:55:00
9:15 AM,32.0,30.2,93,29.61,7.0,West,5.8,-,N/A,,Overcast,270,2013-12-15 14:15:00
9:35 AM,33.8,32.0,93,29.61,10.0,West,5.8,-,N/A,,Overcast,280,2013-12-15 14:35:00
9:55 AM,33.8,30.2,87,29.63,10.0,West,6.9,17.3,N/A,,Overcast,280,2013-12-15 14:55:00
10:15 AM,35.6,32.0,87,29.64,10.0,WNW,11.5,-,N/A,,Overcast,290,2013-12-15 15:15:00
10:35 AM,35.6,33.8,93,29.64,10.0,WNW,9.2,17.3,N/A,,Overcast,290,2013-12-15 15:35:00
10:55 AM,37.4,33.8,87,29.63,10.0,WNW,10.4,18.4,N/A,,Overcast,300,2013-12-15 15:55:00
11:15 AM,39.2,35.6,87,29.63,10.0,WNW,10.4,-,N/A,,Mostly Cloudy,290,2013-12-15 16:15:00
11:35 AM,39.2,33.8,81,29.63,10.0,WNW,13.8,26.5,N/A,,Overcast,290,2013-12-15 16:35:00
11:55 AM,39.2,32.0,75,29.63,10.0,WNW,19.6,32.2,N/A,,Overcast,300,2013-12-15 16:55:00
12:15 PM,39.2,32.0,75,29.64,10.0,WNW,19.6,27.6,N/A,,Overcast,300,2013-12-15 17:15:00
12:35 PM,39.2,32.0,75,29.64,10.0,NW,18.4,24.2,N/A,,Overcast,310,2013-12-15 17:35:00
12:55 PM,-9999,-9999,N/A,29.64,10.0,NW,19.6,31.1,N/A,,Overcast,310,2013-12-15 17:55:00
1:15 PM,-9999,-9999,N/A,29.65,10.0,NW,21.9,32.2,N/A,,Overcast,310,2013-12-15 18:15:00
1:35 PM,39.2,30.2,70,29.67,10.0,WNW,11.5,20.7,N/A,,Overcast,300,2013-12-15 18:35:00
1:55 PM,39.2,30.2,70,29.67,10.0,WNW,11.5,18.4,N/A,,Overcast,300,2013-12-15 18:55:00
2:15 PM,39.2,30.2,70,29.68,10.0,NW,16.1,32.2,N/A,,Overcast,310,2013-12-15 19:15:00
2:35 PM,39.2,30.2,70,29.69,10.0,WNW,17.3,24.2,N/A,,Overcast,290,2013-12-15 19:35:00
2:55 PM,39.2,30.2,70,29.71,10.0,WNW,13.8,18.4,N/A,,Overcast,300,2013-12-15 19:55:00
3:15 PM,39.2,30.2,70,29.72,10.0,WNW,11.5,21.9,N/A,,Overcast,290,2013-12-15 20:15:00
3:35 PM,39.2,30.2,70,29.73,10.0,WNW,8.1,16.1,N/A,,Overcast,290,2013-12-15 20:35:00
3:55 PM,39.2,30.2,70,29.74,10.0,WNW,10.4,17.3,N/A,,Overcast,290,2013-12-15 20:55:00
4:15 PM,39.2,28.4,65,29.75,10.0,WNW,11.5,20.7,N/A,,Overcast,290,2013-12-15 21:15:00
4:35 PM,-9999,-9999,N/A,29.76,10.0,WNW,8.1,24.2,N/A,,Overcast,300,2013-12-15 21:35:00
4:55 PM,37.4,26.6,65,29.77,10.0,West,6.9,-,N/A,,Mostly Cloudy,280,2013-12-15 21:55:00
5:15 PM,37.4,26.6,65,29.77,10.0,West,3.5,-,N/A,,Partly Cloudy,280,2013-12-15 22:15:00
5:35 PM,37.4,26.6,65,29.78,10.0,WNW,4.6,-,N/A,,Scattered Clouds,290,2013-12-15 22:35:00
5:55 PM,37.4,24.8,60,29.79,10.0,WNW,4.6,-,N/A,,Scattered Clouds,290,2013-12-15 22:55:00
6:15 PM,37.4,26.6,65,29.80,10.0,WNW,3.5,-,N/A,,Mostly Cloudy,290,2013-12-15 23:15:00
6:35 PM,37.4,26.6,65,29.81,10.0,WNW,5.8,-,N/A,,Overcast,290,2013-12-15 23:35:00
6:55 PM,37.4,24.8,60,29.82,10.0,WNW,10.4,-,N/A,,Overcast,290,2013-12-15 23:55:00
7:15 PM,37.4,24.8,60,29.83,10.0,WNW,10.4,-,N/A,,Overcast,290,2013-12-16 00:15:00
7:35 PM,37.4,23.0,56,29.84,10.0,WNW,6.9,-,N/A,,Overcast,290,2013-12-16 00:35:00
7:55 PM,37.4,23.0,56,29.85,10.0,WNW,5.8,-,N/A,,Overcast,290,2013-12-16 00:55:00
8:15 PM,35.6,23.0,60,29.86,10.0,WNW,4.6,-,N/A,,Mostly Cloudy,290,2013-12-16 01:15:00
8:35 PM,35.6,23.0,60,29.86,10.0,WNW,5.8,-,N/A,,Mostly Cloudy,290,2013-12-16 01:35:00
8:55 PM,33.8,23.0,65,29.87,10.0,Calm,Calm,-,N/A,,Scattered Clouds,0,2013-12-16 01:55:00
9:15 PM,33.8,23.0,65,29.87,10.0,Calm,Calm,-,N/A,,Clear,0,2013-12-16 02:15:00
9:35 PM,33.8,23.0,65,29.88,10.0,Calm,Calm,-,N/A,,Scattered Clouds,0,2013-12-16 02:35:00
9:55 PM,33.8,24.8,70,29.89,10.0,Calm,Calm,-,N/A,,Overcast,0,2013-12-16 02:55:00
10:15 PM,33.8,23.0,65,29.90,10.0,West,3.5,-,N/A,,Overcast,280,2013-12-16 03:15:00
10:35 PM,33.8,21.2,60,29.90,10.0,Calm,Calm,-,N/A,,Scattered Clouds,0,2013-12-16 03:35:00
10:55 PM,30.2,19.4,64,29.90,10.0,Calm,Calm,-,N/A,,Clear,0,2013-12-16 03:55:00
11:15 PM,30.2,21.2,69,29.90,10.0,Calm,Calm,-,N/A,,Clear,0,2013-12-16 04:15:00
11:35 PM,28.4,21.2,74,29.90,10.0,Calm,Calm,-,N/A,,Clear,0,2013-12-16 04:35:00
11:55 PM,28.4,21.2,74,29.90,10.0,Calm,Calm,-,N/A,,Clear,0,2013-12-16 04:55:00